,,PressureMeas_1m,,PRMeasQMR101_1,,RHStat155_1m_1,,SRMeasQMS101R_1m,,TAStat155_1m_1,,GenWind_1,,GenWind_1,
2018-04-28, 07:00:06,VALID,917.836,VALID,0.0,VALID,93.83,VALID,71.634,VALID,20.435,VALID,118.0,VALID,1.9,
2018-04-28, 07:01:06,VALID,917.843,VALID,0.0,VALID,93.644,VALID,72.454,VALID,20.484,VALID,121.0,VALID,1.266,
2018-04-28, 07:02:06,VALID,917.859,VALID,0.0,VALID,93.558,VALID,73.222,VALID,20.522,VALID,140.0,VALID,0.807,
2018-04-28, 07:03:06,VALID,917.873,VALID,0.0,VALID,93.429,VALID,73.874,VALID,20.555,VALID,122.0,VALID,1.032,
2018-04-28, 07:04:06,VALID,917.872,VALID,0.0,VALID,93.138,VALID,73.982,VALID,20.585,VALID,119.0,VALID,1.468,
2018-04-28, 07:05:06,VALID,917.87,VALID,0.0,VALID,93.047,VALID,73.846,VALID,20.622,VALID,123.0,VALID,0.877,
2018-04-28, 07:06:06,VALID,917.881,VALID,0.0,VALID,92.83,VALID,73.994,VALID,20.66,VALID,117.0,VALID,1.373,
2018-04-28, 07:07:06,VALID,917.906,VALID,0.0,VALID,92.449,VALID,74.815,VALID,20.685,VALID,117.0,VALID,0.878,
2018-04-28, 07:08:06,VALID,917.921,VALID,0.0,VALID,92.403,VALID,76.244,VALID,20.737,VALID,126.0,VALID,0.909,
2018-04-28, 07:09:06,VALID,917.941,VALID,0.0,VALID,92.19,VALID,78.505,VALID,20.763,VALID,129.0,VALID,0.657,
2018-04-28, 07:10:06,VALID,917.958,VALID,0.0,VALID,91.805,VALID,82.194,VALID,20.813,VALID,141.0,VALID,0.208,
2018-04-28, 07:11:06,VALID,917.966,VALID,0.0,VALID,91.914,VALID,113.174,VALID,20.852,VALID,125.0,VALID,0.957,
2018-04-28, 07:12:06,VALID,917.974,VALID,0.0,VALID,91.81,VALID,114.724,VALID,20.861,VALID,116.0,VALID,1.146,
2018-04-28, 07:13:06,VALID,917.99,VALID,0.0,VALID,92.021,VALID,106.713,VALID,20.868,VALID,114.0,VALID,1.285,
2018-04-28, 07:14:06,VALID,918.011,VALID,0.0,VALID,91.471,VALID,93.664,VALID,20.895,VALID,113.0,VALID,1.179,
2018-04-28, 07:15:06,VALID,918.051,VALID,0.0,VALID,91.511,VALID,93.65,VALID,20.93,VALID,102.0,VALID,1.141,
2018-04-28, 07:16:06,VALID,918.075,VALID,0.0,VALID,91.334,VALID,96.099,VALID,20.938,VALID,104.0,VALID,1.025,
2018-04-28, 07:17:06,VALID,918.093,VALID,0.0,VALID,91.127,VALID,101.39,VALID,20.956,VALID,103.0,VALID,1.225,
2018-04-28, 07:18:06,VALID,918.124,VALID,0.0,VALID,90.924,VALID,102.206,VALID,20.987,VALID,101.0,VALID,1.098,
2018-04-28, 07:19:06,VALID,918.137,VALID,0.0,VALID,90.659,VALID,104.821,VALID,21.019,VALID,105.0,VALID,1.36,
2018-04-28, 07:20:06,VALID,918.137,VALID,0.0,VALID,90.611,VALID,107.65,VALID,21.067,VALID,112.0,VALID,1.188,
2018-04-28, 07:21:06,VALID,918.15,VALID,0.0,VALID,91.036,VALID,111.305,VALID,21.113,VALID,106.0,VALID,0.702,
2018-04-28, 07:22:06,VALID,918.164,VALID,0.0,VALID,90.608,VALID,116.325,VALID,21.133,VALID,116.0,VALID,1.339,
2018-04-28, 07:23:06,VALID,918.172,VALID,0.0,VALID,90.407,VALID,121.591,VALID,21.159,VALID,119.0,VALID,0.812,
2018-04-28, 07:24:06,VALID,918.2,VALID,0.0,VALID,90.614,VALID,127.228,VALID,21.182,VALID,120.0,VALID,0.819,
2018-04-28, 07:25:06,VALID,918.21,VALID,0.0,VALID,90.871,VALID,133.616,VALID,21.204,VALID,117.0,VALID,0.756,
2018-04-28, 07:26:06,VALID,918.228,VALID,0.0,VALID,90.23,VALID,162.325,VALID,21.221,VALID,125.0,VALID,0.872,
2018-04-28, 07:27:06,VALID,918.242,VALID,0.0,VALID,90.506,VALID,205.6,VALID,21.244,VALID,120.0,VALID,0.727,
2018-04-28, 07:28:06,VALID,918.258,VALID,0.0,VALID,90.573,VALID,262.928,VALID,21.294,VALID,101.0,VALID,0.906,
2018-04-28, 07:29:06,VALID,918.281,VALID,0.0,VALID,89.751,VALID,229.389,VALID,21.337,VALID,108.0,VALID,1.067,
2018-04-28, 07:30:06,VALID,918.293,VALID,0.0,VALID,89.268,VALID,281.114,VALID,21.398,VALID,90.0,VALID,1.018,
2018-04-28, 07:31:06,VALID,918.322,VALID,0.0,VALID,89.58,VALID,196.802,VALID,21.506,VALID,98.0,VALID,0.772,
2018-04-28, 07:32:06,VALID,918.347,VALID,0.0,VALID,88.66,VALID,151.896,VALID,21.58,VALID,90.0,VALID,1.186,
2018-04-28, 07:33:06,VALID,918.359,VALID,0.0,VALID,89.43,VALID,146.754,VALID,21.646,VALID,91.0,VALID,1.145,
2018-04-28, 07:34:06,VALID,918.384,VALID,0.0,VALID,87.963,VALID,145.936,VALID,21.657,VALID,93.0,VALID,1.486,
2018-04-28, 07:35:06,VALID,918.39,VALID,0.0,VALID,88.586,VALID,145.659,VALID,21.685,VALID,101.0,VALID,0.978,
2018-04-28, 07:36:06,VALID,918.401,VALID,0.0,VALID,88.542,VALID,146.54,VALID,21.716,VALID,110.0,VALID,1.307,
2018-04-28, 07:37:06,VALID,918.42,VALID,0.0,VALID,87.726,VALID,148.404,VALID,21.7,VALID,115.0,VALID,1.195,
2018-04-28, 07:38:06,VALID,918.434,VALID,0.0,VALID,88.113,VALID,151.013,VALID,21.728,INVALID,360.0,VALID,0.475,
2018-04-28, 07:39:06,VALID,918.452,VALID,0.0,VALID,87.584,VALID,155.015,VALID,21.738,VALID,132.0,VALID,0.912,
2018-04-28, 07:40:06,VALID,918.465,VALID,0.0,VALID,87.734,VALID,171.018,VALID,21.751,VALID,146.0,VALID,0.612,
2018-04-28, 07:41:06,VALID,918.476,VALID,0.0,VALID,87.883,VALID,174.406,VALID,21.75,VALID,113.0,VALID,0.599,
2018-04-28, 07:42:06,VALID,918.483,VALID,0.0,VALID,88.658,VALID,208.941,VALID,21.797,VALID,120.0,VALID,0.175,
2018-04-28, 07:43:06,VALID,918.489,VALID,0.0,VALID,88.195,VALID,308.075,VALID,21.848,VALID,174.0,VALID,0.132,
2018-04-28, 07:44:06,VALID,918.5,VALID,0.0,VALID,88.393,VALID,200.975,VALID,21.943,VALID,110.0,VALID,0.697,
2018-04-28, 07:45:06,VALID,918.509,VALID,0.0,VALID,87.902,VALID,197.564,VALID,22.052,VALID,117.0,VALID,0.507,
2018-04-28, 07:46:06,VALID,918.521,VALID,0.0,VALID,87.795,VALID,197.037,VALID,22.142,VALID,97.0,VALID,0.92,
2018-04-28, 07:47:06,VALID,918.554,VALID,0.0,VALID,86.852,VALID,199.66,VALID,22.117,VALID,109.0,VALID,1.379,
2018-04-28, 07:48:06,VALID,918.56,VALID,0.0,VALID,87.058,VALID,194.471,VALID,21.985,VALID,109.0,VALID,0.905,
2018-04-28, 07:49:06,VALID,918.564,VALID,0.0,VALID,88.307,VALID,190.447,VALID,21.963,VALID,113.0,VALID,0.894,
2018-04-28, 07:50:06,VALID,918.586,VALID,0.0,VALID,87.602,VALID,186.081,VALID,21.997,VALID,92.0,VALID,0.661,
2018-04-28, 07:51:06,VALID,918.6,VALID,0.0,VALID,88.014,VALID,182.727,VALID,22.062,VALID,95.0,VALID,0.972,
2018-04-28, 07:52:06,VALID,918.609,VALID,0.0,VALID,87.006,VALID,180.191,VALID,22.086,VALID,79.0,VALID,1.054,
2018-04-28, 07:53:06,VALID,918.63,VALID,0.0,VALID,87.078,VALID,177.477,VALID,22.116,VALID,90.0,VALID,1.104,
2018-04-28, 07:54:06,VALID,918.642,VALID,0.0,VALID,86.861,VALID,174.475,VALID,22.167,VALID,98.0,VALID,1.144,
2018-04-28, 07:55:06,VALID,918.665,VALID,0.0,VALID,86.208,VALID,172.43,VALID,22.217,VALID,95.0,VALID,1.304,
2018-04-28, 07:56:06,VALID,918.69,VALID,0.0,VALID,85.756,VALID,170.571,VALID,22.246,VALID,88.0,VALID,1.072,
2018-04-28, 07:57:06,VALID,918.71,VALID,0.0,VALID,85.882,VALID,169.225,VALID,22.274,VALID,103.0,VALID,1.429,
2018-04-28, 07:58:06,VALID,918.729,VALID,0.0,VALID,86.57,VALID,168.6,VALID,22.256,VALID,99.0,VALID,1.137,
2018-04-28, 07:59:06,VALID,918.741,VALID,0.0,VALID,86.642,VALID,169.7,VALID,22.249,VALID,89.0,VALID,1.033,
2018-04-28, 08:00:06,VALID,918.771,VALID,0.0,VALID,86.518,VALID,172.181,VALID,22.281,VALID,89.0,VALID,1.167,
2018-04-28, 08:01:06,VALID,918.779,VALID,0.0,VALID,87.1,VALID,176.165,VALID,22.31,VALID,75.0,VALID,0.878,
2018-04-28, 08:02:06,VALID,918.798,VALID,0.0,VALID,87.597,VALID,178.117,VALID,22.303,VALID,76.0,VALID,1.213,
2018-04-28, 08:03:06,VALID,918.81,VALID,0.0,VALID,86.866,VALID,180.085,VALID,22.264,VALID,88.0,VALID,0.92,
2018-04-28, 08:04:06,VALID,918.82,VALID,0.0,VALID,86.92,VALID,182.605,VALID,22.321,VALID,91.0,VALID,0.756,
2018-04-28, 08:05:06,VALID,918.831,VALID,0.0,VALID,86.959,VALID,186.582,VALID,22.393,VALID,82.0,VALID,0.8,
2018-04-28, 08:06:06,VALID,918.836,VALID,0.0,VALID,88.031,VALID,198.329,VALID,22.467,VALID,60.0,VALID,0.4,
2018-04-28, 08:07:06,VALID,918.858,VALID,0.0,VALID,86.96,VALID,211.166,VALID,22.575,VALID,77.0,VALID,0.67,
2018-04-28, 08:08:06,VALID,918.869,VALID,0.0,VALID,85.678,VALID,243.633,VALID,22.641,VALID,69.0,VALID,1.233,
2018-04-28, 08:09:06,VALID,918.862,VALID,0.0,VALID,85.269,VALID,226.571,VALID,22.586,VALID,68.0,VALID,1.163,
2018-04-28, 08:10:06,VALID,918.87,VALID,0.0,VALID,86.76,VALID,220.556,VALID,22.553,VALID,92.0,VALID,0.777,
2018-04-28, 08:11:06,VALID,918.889,VALID,0.0,VALID,85.78,VALID,228.106,VALID,22.6,VALID,84.0,VALID,1.14,
2018-04-28, 08:12:06,VALID,918.917,VALID,0.0,VALID,86.111,VALID,235.404,VALID,22.637,VALID,72.0,VALID,1.007,
2018-04-28, 08:13:06,VALID,918.948,VALID,0.0,VALID,85.93,VALID,243.339,VALID,22.627,VALID,62.0,VALID,0.976,
2018-04-28, 08:14:06,VALID,918.987,VALID,0.0,VALID,86.402,VALID,240.434,VALID,22.646,VALID,54.0,VALID,0.86,
2018-04-28, 08:15:06,VALID,919.009,VALID,0.0,VALID,86.504,VALID,239.904,VALID,22.739,VALID,73.0,VALID,0.727,
2018-04-28, 08:16:06,VALID,919.033,VALID,0.0,VALID,84.432,VALID,244.286,VALID,22.8,VALID,85.0,VALID,0.616,
2018-04-28, 08:17:06,VALID,919.051,VALID,0.0,VALID,84.862,VALID,254.652,VALID,22.867,VALID,79.0,VALID,0.874,
2018-04-28, 08:18:06,VALID,919.068,VALID,0.0,VALID,84.922,VALID,262.041,VALID,22.854,VALID,59.0,VALID,0.437,
2018-04-28, 08:19:06,VALID,919.081,VALID,0.0,VALID,85.321,VALID,272.169,VALID,22.968,VALID,40.0,VALID,0.524,
2018-04-28, 08:20:06,VALID,919.071,VALID,0.0,VALID,84.873,VALID,285.089,VALID,23.148,VALID,59.0,VALID,0.264,
2018-04-28, 08:21:06,VALID,919.096,VALID,0.0,VALID,83.375,VALID,294.659,VALID,23.286,VALID,71.0,VALID,0.343,
2018-04-28, 08:22:06,VALID,919.114,VALID,0.0,VALID,81.851,VALID,303.383,VALID,23.399,VALID,103.0,VALID,0.687,
2018-04-28, 08:23:06,VALID,919.106,VALID,0.0,VALID,82.114,VALID,314.439,VALID,23.453,VALID,67.0,VALID,0.676,
2018-04-28, 08:24:06,VALID,919.125,VALID,0.0,VALID,81.017,VALID,305.33,VALID,23.457,VALID,88.0,VALID,0.865,
2018-04-28, 08:25:06,VALID,919.123,VALID,0.0,VALID,80.573,VALID,304.538,VALID,23.382,VALID,96.0,VALID,0.719,
2018-04-28, 08:26:06,VALID,919.129,VALID,0.0,VALID,80.012,VALID,310.466,VALID,23.359,VALID,86.0,VALID,0.622,
2018-04-28, 08:27:06,VALID,919.125,VALID,0.0,VALID,80.771,VALID,317.046,VALID,23.384,VALID,100.0,VALID,0.468,
2018-04-28, 08:28:06,VALID,919.145,VALID,0.0,VALID,79.924,VALID,320.344,VALID,23.417,VALID,110.0,VALID,0.316,
2018-04-28, 08:29:06,VALID,919.131,VALID,0.0,VALID,79.262,VALID,322.555,VALID,23.524,VALID,94.0,VALID,0.541,
2018-04-28, 08:30:06,VALID,919.134,VALID,0.0,VALID,78.062,VALID,326.195,VALID,23.648,VALID,100.0,VALID,0.384,
2018-04-28, 08:31:06,VALID,919.127,VALID,0.0,VALID,78.259,VALID,331.156,VALID,23.711,VALID,63.0,VALID,0.362,
2018-04-28, 08:32:06,VALID,919.128,VALID,0.0,VALID,78.637,VALID,336.385,VALID,23.822,INVALID,360.0,VALID,0.116,
2018-04-28, 08:33:06,VALID,919.138,VALID,0.0,VALID,80.688,VALID,343.172,VALID,23.993,VALID,61.0,VALID,0.434,
2018-04-28, 08:34:06,VALID,919.136,VALID,0.0,VALID,78.808,VALID,350.961,VALID,24.12,INVALID,360.0,VALID,0.065,
2018-04-28, 08:35:06,VALID,919.15,VALID,0.0,VALID,76.749,VALID,368.241,VALID,24.242,INVALID,360.0,VALID,0.148,
2018-04-28, 08:36:06,VALID,919.157,VALID,0.0,VALID,76.546,VALID,374.498,VALID,24.275,INVALID,360.0,VALID,0.05,
2018-04-28, 08:37:06,VALID,919.165,VALID,0.0,VALID,77.758,VALID,383.048,VALID,24.323,INVALID,360.0,VALID,0.086,
2018-04-28, 08:38:06,VALID,919.158,VALID,0.0,VALID,79.412,VALID,372.082,VALID,24.472,INVALID,360.0,VALID,0.069,
2018-04-28, 08:39:06,VALID,919.149,VALID,0.0,VALID,78.714,VALID,375.261,VALID,24.53,INVALID,360.0,VALID,0.0,
2018-04-28, 08:40:06,VALID,919.157,VALID,0.0,VALID,78.255,VALID,376.672,VALID,24.497,INVALID,360.0,VALID,0.0,
2018-04-28, 08:41:06,VALID,919.167,VALID,0.0,VALID,78.07,VALID,371.264,VALID,24.384,INVALID,360.0,VALID,0.03,
2018-04-28, 08:42:06,VALID,919.158,VALID,0.0,VALID,78.661,VALID,382.048,VALID,24.346,VALID,114.0,VALID,0.68,
2018-04-28, 08:43:06,VALID,919.164,VALID,0.0,VALID,79.235,VALID,362.443,VALID,24.353,VALID,114.0,VALID,0.622,
2018-04-28, 08:44:06,VALID,919.165,VALID,0.0,VALID,80.122,VALID,354.373,VALID,24.328,VALID,104.0,VALID,0.861,
2018-04-28, 08:45:06,VALID,919.167,VALID,0.0,VALID,80.586,VALID,334.76,VALID,24.383,VALID,108.0,VALID,1.137,
2018-04-28, 08:46:06,VALID,919.158,VALID,0.0,VALID,80.628,VALID,333.153,VALID,24.353,VALID,67.0,VALID,1.224,
2018-04-28, 08:47:06,VALID,919.16,VALID,0.0,VALID,81.442,VALID,345.164,VALID,24.301,VALID,72.0,VALID,1.028,
2018-04-28, 08:48:06,VALID,919.171,VALID,0.0,VALID,79.443,VALID,358.909,VALID,24.249,VALID,63.0,VALID,0.753,
2018-04-28, 08:49:06,VALID,919.179,VALID,0.0,VALID,80.171,VALID,373.484,VALID,24.175,VALID,93.0,VALID,0.693,
2018-04-28, 08:50:06,VALID,919.169,VALID,0.0,VALID,79.917,VALID,408.775,VALID,24.253,VALID,102.0,VALID,0.158,
2018-04-28, 08:51:06,VALID,919.151,VALID,0.0,VALID,80.908,VALID,427.826,VALID,24.485,INVALID,360.0,VALID,0.369,
2018-04-28, 08:52:06,VALID,919.133,VALID,0.0,VALID,80.114,VALID,453.956,VALID,24.666,VALID,61.0,VALID,1.094,
2018-04-28, 08:53:06,VALID,919.133,VALID,0.0,VALID,79.706,VALID,490.462,VALID,24.58,VALID,64.0,VALID,0.604,
2018-04-28, 08:54:06,VALID,919.118,VALID,0.0,VALID,80.19,VALID,531.651,VALID,24.643,INVALID,360.0,VALID,0.034,
2018-04-28, 08:55:06,VALID,919.119,VALID,0.0,VALID,78.175,VALID,521.207,VALID,24.805,VALID,123.0,VALID,0.198,
2018-04-28, 08:56:06,VALID,919.127,VALID,0.0,VALID,76.835,VALID,769.817,VALID,24.972,VALID,140.0,VALID,0.496,
2018-04-28, 08:57:06,VALID,919.143,VALID,0.0,VALID,76.508,VALID,667.842,VALID,25.109,INVALID,360.0,VALID,0.143,
2018-04-28, 08:58:06,VALID,919.139,VALID,0.0,VALID,74.449,VALID,722.192,VALID,25.423,VALID,122.0,VALID,0.223,
2018-04-28, 08:59:06,VALID,919.149,VALID,0.0,VALID,72.066,VALID,770.51,VALID,25.61,VALID,103.0,VALID,0.96,
2018-04-28, 09:00:06,VALID,919.131,VALID,0.0,VALID,72.66,VALID,617.892,VALID,25.675,VALID,86.0,VALID,0.52,
2018-04-28, 09:01:06,VALID,919.134,VALID,0.0,VALID,72.937,VALID,596.769,VALID,25.945,VALID,60.0,VALID,0.525,
2018-04-28, 09:02:06,VALID,919.115,VALID,0.0,VALID,71.001,VALID,635.631,VALID,26.269,VALID,170.0,VALID,0.344,
2018-04-28, 09:03:06,VALID,919.121,VALID,0.0,VALID,70.253,VALID,688.804,VALID,26.198,VALID,125.0,VALID,0.68,
2018-04-28, 09:04:06,VALID,919.112,VALID,0.0,VALID,71.318,VALID,662.844,VALID,26.188,VALID,127.0,VALID,0.838,
2018-04-28, 09:05:06,VALID,919.125,VALID,0.0,VALID,69.916,VALID,728.798,VALID,26.019,VALID,109.0,VALID,0.319,
2018-04-28, 09:06:06,VALID,919.129,VALID,0.0,VALID,69.798,VALID,954.961,VALID,26.096,VALID,62.0,VALID,0.642,
2018-04-28, 09:07:06,VALID,919.116,VALID,0.0,VALID,68.138,VALID,727.494,VALID,26.326,VALID,102.0,VALID,0.322,
2018-04-28, 09:08:06,VALID,919.097,VALID,0.0,VALID,69.22,VALID,654.509,VALID,26.423,VALID,184.0,VALID,0.537,
2018-04-28, 09:09:06,VALID,919.09,VALID,0.0,VALID,68.598,VALID,765.662,VALID,26.437,VALID,171.0,VALID,0.825,
2018-04-28, 09:10:06,VALID,919.091,VALID,0.0,VALID,67.217,VALID,684.817,VALID,26.221,VALID,150.0,VALID,0.529,
2018-04-28, 09:11:06,VALID,919.098,VALID,0.0,VALID,69.392,VALID,748.009,VALID,26.188,VALID,173.0,VALID,0.511,
2018-04-28, 09:12:06,VALID,919.118,VALID,0.0,VALID,67.791,VALID,863.26,VALID,26.295,VALID,123.0,VALID,1.12,
2018-04-28, 09:13:06,VALID,919.125,VALID,0.0,VALID,67.748,VALID,885.823,VALID,26.338,VALID,131.0,VALID,0.976,
2018-04-28, 09:14:06,VALID,919.132,VALID,0.0,VALID,67.116,VALID,884.013,VALID,26.568,VALID,102.0,VALID,0.988,
2018-04-28, 09:15:06,VALID,919.143,VALID,0.0,VALID,66.591,VALID,669.591,VALID,26.63,VALID,115.0,VALID,1.169,
2018-04-28, 09:16:06,VALID,919.15,VALID,0.0,VALID,66.448,VALID,765.707,VALID,26.465,VALID,140.0,VALID,0.328,
2018-04-28, 09:17:06,VALID,919.14,VALID,0.0,VALID,67.566,VALID,902.343,VALID,26.435,VALID,129.0,VALID,0.0,
2018-04-28, 09:18:06,VALID,919.134,VALID,0.0,VALID,67.529,VALID,626.935,VALID,26.669,VALID,110.0,VALID,0.049,
2018-04-28, 09:19:06,VALID,919.124,VALID,0.0,VALID,66.313,VALID,691.24,VALID,26.95,VALID,69.0,VALID,0.475,
2018-04-28, 09:20:06,VALID,919.129,VALID,0.0,VALID,65.344,VALID,853.5,VALID,27.077,VALID,117.0,VALID,0.465,
2018-04-28, 09:21:06,VALID,919.127,VALID,0.0,VALID,64.978,VALID,467.498,VALID,27.189,VALID,235.0,VALID,0.216,
2018-04-28, 09:22:06,VALID,919.127,VALID,0.0,VALID,65.524,VALID,388.218,VALID,27.134,VALID,236.0,VALID,0.982,
2018-04-28, 09:23:06,VALID,919.136,VALID,0.0,VALID,66.388,VALID,343.359,VALID,26.671,VALID,193.0,VALID,0.914,
2018-04-28, 09:24:06,VALID,919.136,VALID,0.0,VALID,67.652,VALID,333.03,VALID,26.377,VALID,198.0,VALID,1.058,
2018-04-28, 09:25:06,VALID,919.151,VALID,0.0,VALID,68.723,VALID,317.331,VALID,26.074,VALID,223.0,VALID,0.962,
2018-04-28, 09:26:06,VALID,919.152,VALID,0.0,VALID,70.64,VALID,520.987,VALID,25.777,VALID,222.0,VALID,0.269,
2018-04-28, 09:27:06,VALID,919.159,VALID,0.0,VALID,71.156,VALID,888.29,VALID,25.724,VALID,248.0,VALID,0.262,
2018-04-28, 09:28:07,VALID,919.145,VALID,0.0,VALID,71.858,VALID,898.132,VALID,25.94,VALID,269.0,VALID,0.564,
2018-04-28, 09:29:07,VALID,919.138,VALID,0.0,VALID,71.156,VALID,835.788,VALID,26.158,VALID,240.0,VALID,0.888,
2018-04-28, 09:30:07,VALID,919.127,VALID,0.0,VALID,69.875,VALID,401.349,VALID,26.02,VALID,235.0,VALID,1.432,
2018-04-28, 09:31:07,VALID,919.143,VALID,0.0,VALID,70.987,VALID,413.058,VALID,25.765,VALID,197.0,VALID,0.245,
2018-04-28, 09:32:07,VALID,919.149,VALID,0.0,VALID,72.385,VALID,629.802,VALID,25.84,VALID,233.0,VALID,0.577,
2018-04-28, 09:33:07,VALID,919.156,VALID,0.0,VALID,73.219,VALID,624.213,VALID,25.759,VALID,209.0,VALID,0.952,
2018-04-28, 09:34:07,VALID,919.157,VALID,0.0,VALID,74.26,VALID,832.197,VALID,25.703,VALID,235.0,VALID,0.8,
2018-04-28, 09:35:07,VALID,919.146,VALID,0.0,VALID,73.877,VALID,906.157,VALID,25.74,INVALID,360.0,VALID,0.171,
2018-04-28, 09:36:07,VALID,919.141,VALID,0.0,VALID,74.078,VALID,903.732,VALID,26.097,INVALID,360.0,VALID,0.028,
2018-04-28, 09:37:07,VALID,919.128,VALID,0.0,VALID,74.616,VALID,836.864,VALID,26.519,VALID,319.0,VALID,0.346,
2018-04-28, 09:38:07,VALID,919.128,VALID,0.0,VALID,71.644,VALID,525.393,VALID,26.994,VALID,277.0,VALID,0.358,
2018-04-28, 09:39:07,VALID,919.117,VALID,0.0,VALID,70.429,VALID,569.313,VALID,27.18,VALID,272.0,VALID,0.688,
2018-04-28, 09:40:07,VALID,919.12,VALID,0.0,VALID,69.065,VALID,883.728,VALID,27.035,VALID,285.0,VALID,0.407,
2018-04-28, 09:41:07,VALID,919.113,VALID,0.0,VALID,68.903,VALID,874.946,VALID,27.017,VALID,290.0,VALID,0.338,
2018-04-28, 09:42:07,VALID,919.121,VALID,0.0,VALID,69.5,VALID,892.902,VALID,27.001,VALID,339.0,VALID,0.265,
2018-04-28, 09:43:07,VALID,919.113,VALID,0.0,VALID,68.831,VALID,905.114,VALID,27.296,VALID,291.0,VALID,0.257,
2018-04-28, 09:44:07,VALID,919.116,VALID,0.0,VALID,68.312,VALID,911.183,VALID,27.517,VALID,293.0,VALID,0.572,
2018-04-28, 09:45:07,VALID,919.107,VALID,0.0,VALID,67.026,VALID,856.248,VALID,27.602,VALID,269.0,VALID,0.591,
2018-04-28, 09:46:07,VALID,919.11,VALID,0.0,VALID,68.632,VALID,886.826,VALID,27.353,VALID,250.0,VALID,0.689,
2018-04-28, 09:47:07,VALID,919.11,VALID,0.0,VALID,68.173,VALID,970.605,VALID,27.02,VALID,231.0,VALID,0.817,
2018-04-28, 09:48:07,VALID,919.106,VALID,0.0,VALID,69.601,VALID,867.752,VALID,26.63,VALID,253.0,VALID,0.347,
2018-04-28, 09:49:07,VALID,919.097,VALID,0.0,VALID,70.253,VALID,929.431,VALID,26.609,VALID,291.0,VALID,0.4,
2018-04-28, 09:50:07,VALID,919.095,VALID,0.0,VALID,71.613,VALID,930.568,VALID,26.738,VALID,230.0,VALID,0.67,
2018-04-28, 09:51:07,VALID,919.084,VALID,0.0,VALID,70.799,VALID,925.943,VALID,26.409,VALID,234.0,VALID,1.005,
2018-04-28, 09:52:07,VALID,919.087,VALID,0.0,VALID,72.588,VALID,931.053,VALID,26.007,VALID,238.0,VALID,0.666,
2018-04-28, 09:53:07,VALID,919.097,VALID,0.0,VALID,73.918,VALID,791.073,VALID,25.945,VALID,244.0,VALID,1.032,
2018-04-28, 09:54:07,VALID,919.102,VALID,0.0,VALID,73.163,VALID,825.99,VALID,25.875,VALID,245.0,VALID,0.559,
2018-04-28, 09:55:07,VALID,919.099,VALID,0.0,VALID,74.831,VALID,622.673,VALID,25.943,VALID,238.0,VALID,0.829,
2018-04-28, 09:56:07,VALID,919.11,VALID,0.0,VALID,72.858,VALID,413.51,VALID,25.975,VALID,218.0,VALID,1.192,
2018-04-28, 09:57:07,VALID,919.112,VALID,0.0,VALID,72.667,VALID,317.467,VALID,25.962,VALID,236.0,VALID,0.708,
2018-04-28, 09:58:07,VALID,919.102,VALID,0.0,VALID,73.229,VALID,224.894,VALID,25.948,VALID,241.0,VALID,0.827,
2018-04-28, 09:59:07,VALID,919.122,VALID,0.0,VALID,73.448,VALID,222.218,VALID,25.719,VALID,233.0,VALID,0.709,
2018-04-28, 10:00:07,VALID,919.138,VALID,0.0,VALID,74.314,VALID,224.291,VALID,25.665,VALID,201.0,VALID,0.58,
2018-04-28, 10:01:07,VALID,919.133,VALID,0.0,VALID,74.101,VALID,222.048,VALID,25.635,VALID,230.0,VALID,0.9,
2018-04-28, 10:02:07,VALID,919.132,VALID,0.0,VALID,74.844,VALID,219.196,VALID,25.502,VALID,215.0,VALID,0.574,
2018-04-28, 10:03:07,VALID,919.129,VALID,0.0,VALID,74.473,VALID,209.179,VALID,25.527,VALID,227.0,VALID,0.719,
2018-04-28, 10:04:07,VALID,919.116,VALID,0.0,VALID,74.648,VALID,198.624,VALID,25.424,VALID,234.0,VALID,0.839,
2018-04-28, 10:05:07,VALID,919.118,VALID,0.0,VALID,74.457,VALID,184.474,VALID,25.301,VALID,244.0,VALID,0.736,
2018-04-28, 10:06:07,VALID,919.125,VALID,0.0,VALID,75.531,VALID,174.771,VALID,25.248,VALID,221.0,VALID,0.598,
2018-04-28, 10:07:07,VALID,919.127,VALID,0.0,VALID,75.242,VALID,166.356,VALID,25.251,VALID,223.0,VALID,0.524,
2018-04-28, 10:08:07,VALID,919.127,VALID,0.0,VALID,74.712,VALID,163.993,VALID,25.254,VALID,224.0,VALID,0.447,
2018-04-28, 10:09:07,VALID,919.122,VALID,0.0,VALID,75.456,VALID,176.449,VALID,25.208,VALID,231.0,VALID,0.514,
2018-04-28, 10:10:07,VALID,919.124,VALID,0.0,VALID,76.285,VALID,188.389,VALID,25.126,VALID,230.0,VALID,0.517,
2018-04-28, 10:11:07,VALID,919.141,VALID,0.0,VALID,74.856,VALID,210.637,VALID,25.154,VALID,222.0,VALID,0.52,
2018-04-28, 10:12:07,VALID,919.139,VALID,0.0,VALID,72.814,VALID,199.689,VALID,25.308,VALID,227.0,VALID,0.332,
2018-04-28, 10:13:07,VALID,919.14,VALID,0.0,VALID,72.857,VALID,151.481,VALID,25.473,VALID,186.0,VALID,0.454,
2018-04-28, 10:14:07,VALID,919.133,VALID,0.0,VALID,73.207,VALID,135.562,VALID,25.542,VALID,190.0,VALID,0.296,
2018-04-28, 10:15:07,VALID,919.119,VALID,0.0,VALID,72.483,VALID,134.372,VALID,25.643,INVALID,360.0,VALID,0.286,
2018-04-28, 10:16:07,VALID,919.108,VALID,0.0,VALID,70.954,VALID,150.173,VALID,25.62,VALID,178.0,VALID,0.23,
2018-04-28, 10:17:07,VALID,919.094,VALID,0.0,VALID,70.915,VALID,313.192,VALID,25.653,VALID,178.0,VALID,0.235,
2018-04-28, 10:18:07,VALID,919.071,VALID,0.0,VALID,70.153,VALID,190.061,VALID,25.763,VALID,179.0,VALID,0.215,
2018-04-28, 10:19:07,VALID,919.049,VALID,0.0,VALID,69.86,VALID,174.543,VALID,25.803,INVALID,360.0,VALID,0.005,
2018-04-28, 10:20:07,VALID,919.03,VALID,0.0,VALID,69.812,VALID,434.797,VALID,25.837,VALID,153.0,VALID,0.0,
2018-04-28, 10:21:07,VALID,919.012,VALID,0.0,VALID,70.093,VALID,925.884,VALID,25.974,VALID,135.0,VALID,0.336,
2018-04-28, 10:22:07,VALID,919.011,VALID,0.0,VALID,68.149,VALID,919.31,VALID,26.289,VALID,114.0,VALID,0.527,
2018-04-28, 10:23:07,VALID,919.0,VALID,0.0,VALID,68.07,VALID,914.095,VALID,26.637,VALID,103.0,VALID,0.221,
2018-04-28, 10:24:07,VALID,919.003,VALID,0.0,VALID,67.132,VALID,921.881,VALID,27.147,VALID,158.0,VALID,0.823,
2018-04-28, 10:25:07,VALID,918.998,VALID,0.0,VALID,64.757,VALID,912.043,VALID,27.505,VALID,133.0,VALID,0.27,
2018-04-28, 10:26:07,VALID,918.987,VALID,0.0,VALID,64.069,VALID,906.006,VALID,27.71,VALID,177.0,VALID,0.505,
2018-04-28, 10:27:07,VALID,918.969,VALID,0.0,VALID,63.741,VALID,902.633,VALID,27.632,VALID,185.0,VALID,1.465,
2018-04-28, 10:28:07,VALID,918.969,VALID,0.0,VALID,62.999,VALID,909.041,VALID,27.291,VALID,183.0,VALID,0.89,
2018-04-28, 10:29:07,VALID,918.96,VALID,0.0,VALID,63.177,VALID,908.906,VALID,27.076,VALID,180.0,VALID,0.902,
2018-04-28, 10:30:07,VALID,918.95,VALID,0.0,VALID,63.849,VALID,912.34,VALID,27.072,VALID,202.0,VALID,0.897,
2018-04-28, 10:31:07,VALID,918.94,VALID,0.0,VALID,63.656,VALID,920.859,VALID,27.178,VALID,198.0,VALID,0.577,
2018-04-28, 10:32:07,VALID,918.916,VALID,0.0,VALID,63.465,VALID,935.277,VALID,27.202,VALID,234.0,VALID,0.841,
2018-04-28, 10:33:07,VALID,918.903,VALID,0.0,VALID,64.164,VALID,936.05,VALID,27.107,VALID,267.0,VALID,0.551,
2018-04-28, 10:34:07,VALID,918.889,VALID,0.0,VALID,64.921,VALID,940.918,VALID,27.188,VALID,298.0,VALID,0.877,
2018-04-28, 10:35:07,VALID,918.865,VALID,0.0,VALID,65.904,VALID,947.736,VALID,27.521,VALID,339.0,VALID,1.146,